TimeCDT,TemperatureF,Dew PointF,Humidity,Sea Level PressureIn,VisibilityMPH,Wind Direction,Wind SpeedMPH,Gust SpeedMPH,PrecipitationIn,Events,Conditions,WindDirDegrees,DateUTC
12:52 AM,36.0,28.0,73,30.12,10.0,Calm,Calm,-,N/A,,Clear,0,2013-04-05 05:52:00
1:52 AM,35.1,27.0,72,30.13,10.0,WSW,3.5,-,N/A,,Clear,240,2013-04-05 06:52:00
2:52 AM,35.1,27.0,72,30.13,10.0,Calm,Calm,-,N/A,,Clear,0,2013-04-05 07:52:00
3:52 AM,34.0,26.1,73,30.13,10.0,Calm,Calm,-,N/A,,Clear,0,2013-04-05 08:52:00
4:52 AM,34.0,27.0,75,30.14,10.0,WSW,3.5,-,N/A,,Clear,250,2013-04-05 09:52:00
5:52 AM,32.0,26.1,79,30.15,10.0,South,3.5,-,N/A,,Clear,180,2013-04-05 10:52:00
6:52 AM,33.1,27.0,78,30.16,10.0,South,3.5,-,N/A,,Clear,180,2013-04-05 11:52:00
7:52 AM,36.0,30.0,79,30.17,10.0,South,3.5,-,N/A,,Clear,180,2013-04-05 12:52:00
8:52 AM,48.0,34.0,58,30.17,10.0,South,3.5,-,N/A,,Clear,190,2013-04-05 13:52:00
9:52 AM,55.9,35.1,45,30.18,10.0,WNW,4.6,-,N/A,,Clear,300,2013-04-05 14:52:00
10:52 AM,60.1,35.1,39,30.19,10.0,WNW,3.5,-,N/A,,Clear,290,2013-04-05 15:52:00
11:52 AM,63.0,34.0,34,30.19,10.0,NNW,3.5,-,N/A,,Clear,340,2013-04-05 16:52:00
12:52 PM,64.0,34.0,33,30.16,10.0,Variable,6.9,-,N/A,,Clear,0,2013-04-05 17:52:00
1:52 PM,66.0,35.1,32,30.13,10.0,South,8.1,-,N/A,,Clear,170,2013-04-05 18:52:00
2:52 PM,66.9,36.0,32,30.10,10.0,South,8.1,-,N/A,,Clear,180,2013-04-05 19:52:00
3:52 PM,66.9,36.0,32,30.07,10.0,SW,4.6,-,N/A,,Clear,220,2013-04-05 20:52:00
4:52 PM,68.0,36.0,31,30.05,10.0,South,9.2,-,N/A,,Clear,190,2013-04-05 21:52:00
5:52 PM,68.0,37.0,32,30.03,10.0,SSW,9.2,-,N/A,,Clear,210,2013-04-05 22:52:00
6:52 PM,64.0,39.0,40,30.03,10.0,SSW,8.1,-,N/A,,Clear,200,2013-04-05 23:52:00
7:52 PM,59.0,37.0,44,30.02,10.0,South,8.1,-,N/A,,Clear,170,2013-04-06 00:52:00
8:52 PM,55.9,37.9,51,30.00,10.0,SSE,9.2,-,N/A,,Clear,160,2013-04-06 01:52:00
9:52 PM,59.0,36.0,42,30.00,10.0,SSE,11.5,-,N/A,,Clear,160,2013-04-06 02:52:00
10:52 PM,57.0,36.0,45,29.98,10.0,SSE,10.4,-,N/A,,Clear,160,2013-04-06 03:52:00
11:52 PM,55.9,35.1,45,29.97,10.0,SSE,10.4,-,N/A,,Clear,160,2013-04-06 04:52:00